Location: Gugi
(45.4667°N, 11.1000°E)
Time: 01:19:44
(UTC+00:00)

CZ-4 R/B - Pass Details

Date: 17 November 2019
Orbit: 530 x 601 km, 97.7° (Epoch: 12 December)

Event Time Altitude Azimuth Distance (km) Brightness Sun altitude
Rises 18:30:17 0° 201° (SSW) 2,815 5.2 -29.0°
Reaches altitude 10° 18:32:55 10° 218° (SW) 1,910 4.5 -29.5°
Maximum altitude 18:36:00 20° 267° (W) 1,367 4.0 -30.0°
Drops below altitude 10° 18:39:04 10° 315° (NW) 1,893 4.6 -30.6°
Sets 18:41:41 0° 333° (NNW) 2,782 5.3 -31.0°
